TimeCST,TemperatureF,Dew PointF,Humidity,Sea Level PressureIn,VisibilityMPH,Wind Direction,Wind SpeedMPH,Gust SpeedMPH,PrecipitationIn,Events,Conditions,WindDirDegrees,DateUTC
12:15 AM,30.2,28.4,93,29.66,5.0,North,9.2,-,N/A,Snow,Light Snow,350,2013-02-14 06:15:00
12:35 AM,30.2,28.4,93,29.67,10.0,North,10.4,-,N/A,,Overcast,360,2013-02-14 06:35:00
12:55 AM,30.2,28.4,93,29.67,10.0,North,8.1,-,N/A,,Overcast,10,2013-02-14 06:55:00
1:15 AM,28.4,26.6,93,29.69,10.0,NNW,9.2,-,N/A,,Mostly Cloudy,340,2013-02-14 07:15:00
1:35 AM,28.4,26.6,93,29.70,10.0,NNW,8.1,-,N/A,,Mostly Cloudy,340,2013-02-14 07:35:00
1:55 AM,28.4,26.6,93,29.70,10.0,NNW,9.2,-,N/A,,Mostly Cloudy,330,2013-02-14 07:55:00
2:15 AM,26.6,23.0,86,29.72,10.0,NNW,6.9,-,N/A,,Scattered Clouds,330,2013-02-14 08:15:00
2:35 AM,23.0,23.0,100,29.72,10.0,NW,5.8,-,N/A,,Clear,320,2013-02-14 08:35:00
2:55 AM,23.0,21.2,93,29.73,10.0,NW,6.9,-,N/A,,Clear,310,2013-02-14 08:55:00
3:15 AM,23.0,21.2,93,29.73,10.0,WNW,6.9,-,N/A,,Clear,300,2013-02-14 09:15:00
3:35 AM,21.2,19.4,93,29.73,7.0,NW,5.8,-,N/A,,Clear,320,2013-02-14 09:35:00
3:55 AM,19.4,19.4,100,29.74,7.0,NW,5.8,-,N/A,,Scattered Clouds,320,2013-02-14 09:55:00
4:15 AM,19.4,19.4,100,29.75,10.0,NW,5.8,-,N/A,,Scattered Clouds,310,2013-02-14 10:15:00
4:35 AM,19.4,19.4,100,29.75,10.0,NW,6.9,-,N/A,,Clear,310,2013-02-14 10:35:00
4:55 AM,19.4,19.4,100,29.76,10.0,WNW,4.6,-,N/A,,Scattered Clouds,300,2013-02-14 10:55:00
5:15 AM,19.4,19.4,100,29.77,10.0,West,3.5,-,N/A,,Scattered Clouds,280,2013-02-14 11:15:00
5:35 AM,19.4,17.6,93,29.78,10.0,West,4.6,-,N/A,,Clear,280,2013-02-14 11:35:00
5:55 AM,15.8,14.0,93,29.78,7.0,West,3.5,-,N/A,,Clear,270,2013-02-14 11:55:00
6:15 AM,12.2,12.2,100,29.79,7.0,Calm,Calm,-,N/A,,Mostly Cloudy,0,2013-02-14 12:15:00
6:35 AM,15.8,14.0,93,29.79,10.0,Calm,Calm,-,N/A,,Overcast,0,2013-02-14 12:35:00
6:55 AM,19.4,17.6,93,29.80,10.0,NW,6.9,-,N/A,,Overcast,320,2013-02-14 12:55:00
7:15 AM,19.4,17.6,93,29.81,10.0,NNW,9.2,-,N/A,,Overcast,330,2013-02-14 13:15:00
7:35 AM,19.4,15.8,86,29.82,10.0,NNW,9.2,-,N/A,,Overcast,330,2013-02-14 13:35:00
7:55 AM,19.4,17.6,93,29.82,1.0,NNW,8.1,-,N/A,,Overcast,330,2013-02-14 13:55:00
8:15 AM,19.4,17.6,93,29.83,10.0,NNW,6.9,-,N/A,,Mostly Cloudy,330,2013-02-14 14:15:00
8:35 AM,19.4,17.6,93,29.84,10.0,NNW,10.4,-,N/A,,Mostly Cloudy,340,2013-02-14 14:35:00
8:55 AM,19.4,17.6,93,29.85,10.0,NNW,10.4,-,N/A,,Scattered Clouds,330,2013-02-14 14:55:00
9:15 AM,19.4,17.6,93,29.86,10.0,NNW,11.5,-,N/A,,Mostly Cloudy,340,2013-02-14 15:15:00
9:35 AM,19.4,15.8,86,29.87,10.0,NNW,10.4,16.1,N/A,,Mostly Cloudy,340,2013-02-14 15:35:00
9:55 AM,19.4,14.0,80,29.88,10.0,NNW,12.7,16.1,N/A,,Scattered Clouds,340,2013-02-14 15:55:00
10:15 AM,19.4,14.0,80,29.89,10.0,NNW,10.4,-,N/A,,Clear,340,2013-02-14 16:15:00
10:35 AM,21.2,14.0,74,29.90,10.0,North,10.4,-,N/A,,Clear,350,2013-02-14 16:35:00
10:55 AM,21.2,14.0,74,29.91,10.0,North,10.4,-,N/A,,Clear,350,2013-02-14 16:55:00
11:15 AM,23.0,12.2,63,29.92,10.0,North,12.7,-,N/A,,Clear,350,2013-02-14 17:15:00
11:35 AM,23.0,12.2,63,29.92,10.0,NNW,12.7,-,N/A,,Scattered Clouds,340,2013-02-14 17:35:00
11:55 AM,23.0,12.2,63,29.93,10.0,NNW,9.2,-,N/A,,Scattered Clouds,340,2013-02-14 17:55:00
12:15 PM,23.0,10.4,59,29.94,10.0,NNW,11.5,-,N/A,,Clear,340,2013-02-14 18:15:00
12:35 PM,21.2,10.4,63,29.95,10.0,NNW,13.8,17.3,N/A,,Clear,340,2013-02-14 18:35:00
12:55 PM,21.2,10.4,63,29.95,10.0,NNW,13.8,19.6,N/A,,Clear,340,2013-02-14 18:55:00
1:15 PM,23.0,8.6,54,29.96,10.0,NNW,19.6,25.3,N/A,,Clear,340,2013-02-14 19:15:00
1:35 PM,23.0,8.6,54,29.97,10.0,NNW,17.3,20.7,N/A,,Clear,330,2013-02-14 19:35:00
1:55 PM,23.0,6.8,50,29.98,10.0,NNW,18.4,24.2,N/A,,Clear,340,2013-02-14 19:55:00
2:15 PM,23.0,5.0,46,29.99,10.0,NNW,16.1,-,N/A,,Clear,340,2013-02-14 20:15:00
2:35 PM,23.0,5.0,46,29.99,10.0,NNW,15.0,21.9,N/A,,Clear,340,2013-02-14 20:35:00
2:55 PM,23.0,3.2,43,30.01,10.0,North,15.0,20.7,N/A,,Clear,350,2013-02-14 20:55:00
3:15 PM,23.0,3.2,43,30.02,10.0,NNW,12.7,-,N/A,,Clear,340,2013-02-14 21:15:00
3:35 PM,23.0,5.0,46,30.03,10.0,NW,12.7,18.4,N/A,,Clear,320,2013-02-14 21:35:00
3:55 PM,23.0,6.8,50,30.04,10.0,NW,13.8,-,N/A,,Clear,320,2013-02-14 21:55:00
4:15 PM,23.0,5.0,46,30.05,10.0,NW,13.8,-,N/A,,Clear,320,2013-02-14 22:15:00
4:35 PM,23.0,8.6,54,30.07,10.0,NW,12.7,-,N/A,,Clear,310,2013-02-14 22:35:00
4:55 PM,21.2,8.6,58,30.08,10.0,NW,15.0,-,N/A,,Clear,310,2013-02-14 22:55:00
5:15 PM,19.4,8.6,63,30.09,10.0,NW,9.2,-,N/A,,Clear,310,2013-02-14 23:15:00
5:35 PM,17.6,8.6,68,30.10,10.0,NW,10.4,-,N/A,,Clear,310,2013-02-14 23:35:00
5:55 PM,17.6,6.8,63,30.11,10.0,NW,10.4,-,N/A,,Clear,310,2013-02-14 23:55:00
6:15 PM,15.8,5.0,62,30.12,10.0,WNW,10.4,-,N/A,,Clear,300,2013-02-15 00:15:00
6:35 PM,14.0,5.0,67,30.13,10.0,NW,12.7,-,N/A,,Clear,310,2013-02-15 00:35:00
6:55 PM,12.2,5.0,73,30.14,10.0,NW,12.7,-,N/A,,Clear,320,2013-02-15 00:55:00
7:15 PM,12.2,3.2,67,30.14,10.0,NW,12.7,-,N/A,,Clear,310,2013-02-15 01:15:00
7:35 PM,10.4,3.2,73,30.15,10.0,NW,15.0,-,N/A,,Clear,320,2013-02-15 01:35:00
7:55 PM,10.4,1.4,67,30.15,10.0,NW,12.7,-,N/A,,Clear,310,2013-02-15 01:55:00
8:15 PM,8.6,1.4,73,30.16,10.0,NW,11.5,-,N/A,,Clear,310,2013-02-15 02:15:00
8:35 PM,8.6,-0.4,67,30.17,10.0,WNW,10.4,-,N/A,,Clear,300,2013-02-15 02:35:00
8:55 PM,8.6,-0.4,67,30.17,10.0,WNW,11.5,-,N/A,,Clear,300,2013-02-15 02:55:00
9:15 PM,5.0,-0.4,78,30.17,10.0,NW,12.7,-,N/A,,Clear,310,2013-02-15 03:15:00
9:35 PM,5.0,-0.4,78,30.18,10.0,NW,11.5,-,N/A,,Clear,310,2013-02-15 03:35:00
9:55 PM,5.0,-0.4,78,30.18,10.0,NW,9.2,-,N/A,,Scattered Clouds,310,2013-02-15 03:55:00
10:15 PM,3.2,-2.2,78,30.19,10.0,WNW,4.6,-,N/A,,Clear,290,2013-02-15 04:15:00
10:35 PM,3.2,-2.2,78,30.19,10.0,WNW,5.8,-,N/A,,Mostly Cloudy,290,2013-02-15 04:35:00
10:55 PM,3.2,-0.4,85,30.19,10.0,WNW,8.1,-,N/A,,Overcast,290,2013-02-15 04:55:00
11:15 PM,3.2,-0.4,85,30.19,10.0,WNW,6.9,-,N/A,,Overcast,290,2013-02-15 05:15:00
11:35 PM,5.0,1.4,85,30.19,10.0,WNW,9.2,-,N/A,,Overcast,300,2013-02-15 05:35:00
11:55 PM,5.0,1.4,85,30.19,10.0,WNW,8.1,-,N/A,,Overcast,300,2013-02-15 05:55:00